Regional Weather Roundup
Issued by NWS

Home | Current Version | Previous Version | Graphics & Text | Print | Product List | Glossary On
Versions: 1 2 3 4 5 6 7 8 9 10 11 12 13 14 15 16 17 18 19 20 21 22 23 24 25 26 27 28 29 30 31 32 33 34 35 36 37 38 39 40 41 42 43 44 45 46 47 48 49 50
000
ASUS43 KDMX 241907
RWRIA

WEATHER ROUNDUP FOR IOWA
NATIONAL WEATHER SERVICE DES MOINES IA
200 PM CDT SUN MAY 24 2015

NOTE: "FAIR" INDICATES FEW OR NO CLOUDS BELOW 12,000 FEET WITH NO
SIGNIFICANT WEATHER AND/OR OBSTRUCTIONS TO VISIBILITY.

* - THESE STATIONS ARE NOT NWS STATIONS...THUS NOT UNDER NWS
QUALITY CONTROL.  THEY ALSO DO NOT REPORT WEATHER SUCH
AS PRECIPITATION OR FOG.

IAZ001>003-012>014-020>022-031>034-043>046-242000-
   NORTHWEST IOWA

CITY           SKY/WX    TMP DP  RH WIND       PRES   REMARKS
CARROLL *      CLOUDY    64  63  94 S13       29.83F FOG
CHEROKEE *     CLOUDY    64  63  94 S9        29.82F
DENISON *      CLOUDY    64  64 100 SW3       29.81S
LE MARS *      CLOUDY    64  61  88 VRB6      29.83F
ORANGE CITY *  CLOUDY    61  59  94 E5        29.83F FOG
SHELDON *      CLOUDY    61 N/A N/A E13       29.83F FOG
SIOUX CITY     LGT RAIN  64  59  83 E7        29.82F
SPENCER        CLOUDY    61  59  93 E14       29.84F
STORM LAKE *   PTSUNNY   63  61  94 S12       29.83F
$$

IAZ055>058-069>071-079>083-090>094-242000-
   SOUTHWEST IOWA

CITY           SKY/WX    TMP DP  RH WIND       PRES   REMARKS
ATLANTIC *     CLOUDY    64  64 100 S10       29.83F
AUDUBON *      LGT RAIN  64  61  88 S7        29.84F
CLARINDA *     CLOUDY    70  66  88 S9        29.85F
COUNCIL BLFS * CLOUDY    66  66 100 SW9       29.83F
CRESTON *      CLOUDY    66  66 100 S12       29.85F
HARLAN  *      CLOUDY    66  66 100 S9        29.86F
LAMONI         CLOUDY    71  64  78 S12       29.86F
RED OAK *      CLOUDY    68  64  88 S7        29.83F
SHENANDOAH *   CLOUDY    68  64  88 S10       29.84F
$$

IAZ047>049-059>061-072>074-084-242000-
   CENTRAL IOWA

CITY           SKY/WX    TMP DP  RH WIND       PRES   REMARKS
AMES           CLOUDY    63  61  93 SE10      29.86F FOG
ANKENY *       CLOUDY    66  64  94 S8        29.86F
CHARITON *     CLOUDY    68  64  88 S12       29.87F
DES MOINES     CLOUDY    67  63  87 SE10      29.85F
GRINNELL*      CLOUDY    68  63  83 SE13G18   29.88F
KNOXVILLE *    CLOUDY    70  64  83 S13       29.85F
MARSHALLTOWN   LGT RAIN  64  62  93 SE13      29.87F FOG
PELLA *        CLOUDY    68  68 100 S8        29.88F
PERRY *        CLOUDY    64  63  94 S12       29.84F
$$

IAZ004>006-015-016-023>025-035-036-242000-
   NORTH CENTRAL IOWA

CITY           SKY/WX    TMP DP  RH WIND       PRES   REMARKS
ALGONA *       CLOUDY    61  59  94 SE12G21   29.86F FOG
CLARION *      CLOUDY    61  61 100 SE17G23   29.87F FOG
ESTHERVILLE    LGT RAIN  59  58  96 E14       29.85F FOG
FORT DODGE *   CLOUDY    61  57  88 SE8       29.86S
MASON CITY     LGT RAIN  60  58  92 SE16G29   29.90F FOG
FOREST CITY *  DRIZZLE   57  57 100 SE10G18   29.89F
IOWA FALLS *   RAIN      61  59  94 SE13      29.89S
$$

IAZ007>011-017>019-026>030-037>042-050>054-066-242000-
   NORTHEAST IOWA

CITY           SKY/WX    TMP DP  RH WIND       PRES   REMARKS
CEDAR RAPIDS   LGT RAIN  63  62  97 E12       29.92F FOG
CHARLES CITY * CLOUDY    59  59 100 SE13G21   29.92F FOG
CLINTON *      CLOUDY    64  61  88 E13       29.98F
DECORAH *      CLOUDY    59  59 100 E16G26    29.94F FOG
DUBUQUE        CLOUDY    60  58  92 E17       29.98F
MONTICELLO *   HVY RAIN  61  61 100 E9        29.96F
OELWEIN *      CLOUDY    61  59  94 SE20G29   29.94F
WATERLOO       CLOUDY    61  58  90 SE16      29.90S
$$

IAZ064-065-067-068-078-242000-
   EAST CENTRAL IOWA

CITY           SKY/WX    TMP DP  RH WIND       PRES   REMARKS
DAVENPORT      LGT RAIN  67  63  87 E12       29.95F
IOWA CITY      CLOUDY    66  63  90 E7        29.94F
MT. PLEASANT * CLOUDY    72  64  78 S8        29.92F
MUSCATINE *    CLOUDY    72  64  78 S10       29.93F
QUAD CITIES    CLOUDY    71  67  87 E6        29.93F
$$

IAZ062-063-075>077-085>089-095>099-242000-
   SOUTHEAST IOWA

CITY           SKY/WX    TMP DP  RH WIND       PRES   REMARKS
BURLINGTON     CLOUDY    75  65  70 S16G28    29.92F
FAIRFIELD *    CLOUDY    70  64  83 S10       29.91F
FORT MADISON * CLOUDY    73  66  78 S10       29.93F
KEOKUK *       CLOUDY    75  66  73 S8G15     29.91F
OSKALOOSA *    CLOUDY    70  64  83 S17G25    29.88F
CENTERVILLE *  MOSUNNY   70  70 100 S14       29.90F
OTTUMWA        CLOUDY    71  67  87 S17       29.89F
WASHINGTON *   CLOUDY    70  66  88 S12G18    29.93F
$$

ABBREVIATIONS USED IN REMARKS
   TC - TEMPERATURES IN CELSIUS
  WCI - WIND CHILL INDEX
   HX - HEAT INDEX
  VSB - VISIBILITY
$$



USA.gov is the U.S. government's official web portal to all federal, state and local government web resources and services.